,,,PA_Meas_PMT16A,,PR_Meas_QMR101_102,,RH_Meas_QMH101,,SR_Meas_QMS101,,TA_Meas_QMH101,,GenWind,,GenWind,
date,time,status,PA,status,PR,status,RH,status,SR,status,TA,status,DirAvg,status,SpdAvg,
2011-12-14, 00:00:04,VALID,1000.32,VALID,0,VALID,94.5768,VALID,0,VALID,23.1531,VALID,319,VALID,1.06758,
2011-12-14, 00:01:04,VALID,1000.35,VALID,0,VALID,94.5615,VALID,0,VALID,23.1726,VALID,307,VALID,1.39102,
2011-12-14, 00:02:04,VALID,1000.34,VALID,0.5,VALID,94.5615,VALID,0,VALID,23.1531,VALID,312,VALID,1.5832,
2011-12-14, 00:03:04,VALID,1000.37,VALID,0,VALID,94.5615,VALID,0,VALID,23.1531,VALID,332,VALID,0.830859,
2011-12-14, 00:04:04,VALID,1000.37,VALID,0,VALID,94.5615,VALID,0,VALID,23.1726,VALID,294,VALID,0.567578,
2011-12-14, 00:05:04,VALID,1000.37,VALID,0,VALID,94.592,VALID,0,VALID,23.1531,VALID,324,VALID,1.81953,
2011-12-14, 00:06:04,VALID,1000.33,VALID,0.5,VALID,94.5997,VALID,0,VALID,23.0946,VALID,309,VALID,2.45391,
2011-12-14, 00:07:04,VALID,1000.36,VALID,0.5,VALID,94.592,VALID,0,VALID,23.0751,VALID,275,VALID,0.99375,
2011-12-14, 00:08:04,VALID,1000.37,VALID,0.5,VALID,94.6149,VALID,0.104696,VALID,23.0166,VALID,305,VALID,1.85859,
2011-12-14, 00:09:04,VALID,1000.35,VALID,0,VALID,94.6302,VALID,0,VALID,22.9971,VALID,297,VALID,1.8957,
2011-12-14, 00:10:04,VALID,1000.37,VALID,0.5,VALID,94.6226,VALID,0,VALID,22.9811,VALID,304,VALID,2.04805,
2011-12-14, 00:11:04,VALID,1000.36,VALID,0.5,VALID,94.6149,VALID,0,VALID,22.9811,VALID,313,VALID,1.87305,
2011-12-14, 00:12:04,VALID,1000.38,VALID,0,VALID,94.6226,VALID,0,VALID,22.9208,VALID,326,VALID,1.03789,
2011-12-14, 00:13:04,VALID,1000.37,VALID,1,VALID,94.6378,VALID,0,VALID,22.9208,VALID,313,VALID,2.64844,
2011-12-14, 00:14:04,VALID,1000.39,VALID,1,VALID,94.6607,VALID,0,VALID,22.8818,VALID,318,VALID,1.58242,
2011-12-14, 00:15:04,VALID,1000.38,VALID,0.5,VALID,94.6378,VALID,0,VALID,22.8835,VALID,302,VALID,1.43516,
2011-12-14, 00:16:04,VALID,1000.35,VALID,0.5,VALID,94.6607,VALID,0,VALID,22.8835,VALID,301,VALID,1.11523,
2011-12-14, 00:17:04,VALID,1000.34,VALID,0.5,VALID,94.6454,VALID,0,VALID,22.8623,VALID,285,VALID,1.22656,
2011-12-14, 00:18:04,VALID,1000.22,VALID,0.5,VALID,94.6531,VALID,0,VALID,22.903,VALID,262,VALID,2.23164,
2011-12-14, 00:19:04,VALID,1000.25,VALID,0,VALID,94.6454,VALID,0,VALID,22.8623,VALID,259,VALID,2.36172,
2011-12-14, 00:20:04,VALID,1000.28,VALID,0.5,VALID,94.6378,VALID,0,VALID,22.903,VALID,236,VALID,1.11758,
2011-12-14, 00:21:04,VALID,1000.31,VALID,0.5,VALID,94.6149,VALID,0,VALID,22.8818,VALID,268,VALID,1.00742,
2011-12-14, 00:22:04,VALID,1000.29,VALID,0.5,VALID,94.6226,VALID,0,VALID,22.8818,VALID,268,VALID,1.54688,
2011-12-14, 00:23:04,VALID,1000.24,VALID,0.5,VALID,94.6302,VALID,0,VALID,22.903,VALID,228,VALID,1.01602,
2011-12-14, 00:24:04,VALID,1000.22,VALID,1,VALID,94.6302,VALID,0,VALID,22.8818,VALID,236,VALID,1.65195,
2011-12-14, 00:25:04,VALID,1000.15,VALID,0.5,VALID,94.6302,VALID,0,VALID,22.9013,VALID,240,VALID,1.85078,
2011-12-14, 00:26:04,VALID,1000.14,VALID,0.5,VALID,94.6073,VALID,0,VALID,22.9013,VALID,228,VALID,1.5043,
2011-12-14, 00:27:04,VALID,1000.15,VALID,1,VALID,94.5997,VALID,0,VALID,22.9615,VALID,232,VALID,1.33711,
2011-12-14, 00:28:04,VALID,1000.1,VALID,0.5,VALID,94.592,VALID,0,VALID,22.9403,VALID,248,VALID,0.56875,
2011-12-14, 00:29:04,VALID,1000.1,VALID,1,VALID,94.592,VALID,0,VALID,22.9615,VALID,256,VALID,0.920313,
2011-12-14, 00:30:04,VALID,1000.07,VALID,0.5,VALID,94.5997,VALID,0,VALID,22.942,VALID,248,VALID,1.62344,
2011-12-14, 00:31:04,VALID,1000.02,VALID,1,VALID,94.6073,VALID,0,VALID,22.9013,VALID,229,VALID,0.646484,
2011-12-14, 00:32:04,VALID,1000.01,VALID,0.5,VALID,94.6073,VALID,0,VALID,22.8818,VALID,302,VALID,1.37578,
2011-12-14, 00:33:04,VALID,999.982,VALID,0.5,VALID,94.6302,VALID,0,VALID,22.8427,VALID,285,VALID,1.30625,
2011-12-14, 00:34:04,VALID,999.973,VALID,0.5,VALID,94.6302,VALID,0,VALID,22.8037,VALID,319,VALID,0.970703,
2011-12-14, 00:35:04,VALID,999.951,VALID,1,VALID,94.6226,VALID,0,VALID,22.8037,VALID,297,VALID,1.125,
2011-12-14, 00:36:04,VALID,999.906,VALID,1,VALID,94.6302,VALID,0,VALID,22.786,VALID,282,VALID,1.65664,
2011-12-14, 00:37:04,VALID,999.844,VALID,1,VALID,94.6302,VALID,0,VALID,22.7452,VALID,283,VALID,1.38437,
2011-12-14, 00:38:04,VALID,999.862,VALID,1,VALID,94.6302,VALID,0,VALID,22.7647,VALID,268,VALID,1.03125,
2011-12-14, 00:39:04,VALID,999.812,VALID,0.5,VALID,94.6149,VALID,0,VALID,22.7842,VALID,282,VALID,1.27852,
2011-12-14, 00:40:04,VALID,999.792,VALID,0,VALID,94.6226,VALID,0,VALID,22.8037,VALID,261,VALID,0.873438,
2011-12-14, 00:41:04,VALID,999.796,VALID,0.5,VALID,94.6454,VALID,0,VALID,22.8037,VALID,307,VALID,0.6625,
2011-12-14, 00:42:04,VALID,999.785,VALID,0.5,VALID,94.6378,VALID,0,VALID,22.8232,VALID,251,VALID,0.805469,
2011-12-14, 00:43:04,VALID,999.723,VALID,0,VALID,94.6149,VALID,0,VALID,22.8232,VALID,249,VALID,0.98125,
2011-12-14, 00:44:04,VALID,999.746,VALID,0.5,VALID,94.6073,VALID,0,VALID,22.8232,VALID,257,VALID,0.625391,
2011-12-14, 00:45:04,VALID,999.708,VALID,0,VALID,94.6149,VALID,0,VALID,22.8232,VALID,245,VALID,0.751562,
2011-12-14, 00:46:04,VALID,999.693,VALID,0,VALID,94.6226,VALID,0,VALID,22.8232,VALID,246,VALID,0.285937,
2011-12-14, 00:47:04,VALID,999.686,VALID,0,VALID,94.6226,VALID,0,VALID,22.8232,VALID,246,VALID,0.0214844,
2011-12-14, 00:48:04,VALID,999.659,VALID,0.5,VALID,94.6149,VALID,0,VALID,22.8232,VALID,229,VALID,0.726563,
2011-12-14, 00:49:04,VALID,999.633,VALID,0,VALID,94.6226,VALID,0,VALID,22.8445,VALID,216,VALID,0.827344,
2011-12-14, 00:50:04,VALID,999.578,VALID,0,VALID,94.6302,VALID,0,VALID,22.8427,VALID,212,VALID,0.935156,
2011-12-14, 00:51:04,VALID,999.554,VALID,0,VALID,94.592,VALID,0,VALID,22.8623,VALID,204,VALID,1.10586,
2011-12-14, 00:52:04,VALID,999.51,VALID,0,VALID,94.5997,VALID,0,VALID,22.8818,VALID,203,VALID,1.33438,
2011-12-14, 00:53:04,VALID,999.486,VALID,0,VALID,94.592,VALID,0,VALID,22.9403,VALID,204,VALID,1.54258,
2011-12-14, 00:54:04,VALID,999.475,VALID,0.5,VALID,94.5615,VALID,0,VALID,22.9598,VALID,199,VALID,1.76523,
2011-12-14, 00:55:04,VALID,999.445,VALID,0,VALID,94.5691,VALID,0,VALID,22.9793,VALID,201,VALID,1.66328,
2011-12-14, 00:56:04,VALID,999.423,VALID,0,VALID,94.5539,VALID,0,VALID,22.9988,VALID,198,VALID,1.85,
2011-12-14, 00:57:04,VALID,999.436,VALID,0,VALID,94.5615,VALID,0,VALID,22.9793,VALID,173,VALID,1.44062,
2011-12-14, 00:58:04,VALID,999.445,VALID,0,VALID,94.5691,VALID,0,VALID,23.0006,VALID,182,VALID,1.61523,
2011-12-14, 00:59:04,VALID,999.474,VALID,0,VALID,94.5768,VALID,0,VALID,22.9793,VALID,156,VALID,1.08008,
2011-12-14, 01:00:04,VALID,999.482,VALID,0,VALID,94.5691,VALID,0,VALID,22.9793,VALID,137,VALID,1.25,
2011-12-14, 01:01:04,VALID,999.498,VALID,0,VALID,94.5691,VALID,0,VALID,23.0006,VALID,92,VALID,1.63008,
2011-12-14, 01:02:04,VALID,999.491,VALID,0,VALID,94.592,VALID,0,VALID,22.9598,VALID,89,VALID,1.54023,
2011-12-14, 01:03:04,VALID,999.496,VALID,0,VALID,94.6073,VALID,0,VALID,22.9811,VALID,92,VALID,1.38242,
2011-12-14, 01:04:04,VALID,999.455,VALID,0,VALID,94.592,VALID,0,VALID,22.9208,VALID,79,VALID,1.32148,
2011-12-14, 01:05:04,VALID,999.442,VALID,0,VALID,94.592,VALID,0,VALID,22.9208,VALID,72,VALID,1.13984,
2011-12-14, 01:06:04,VALID,999.384,VALID,0,VALID,94.6149,VALID,0,VALID,22.9013,VALID,72,VALID,1.11367,
2011-12-14, 01:07:04,VALID,999.361,VALID,0,VALID,94.6073,VALID,0,VALID,22.9013,VALID,69,VALID,0.763281,
2011-12-14, 01:08:04,VALID,999.313,VALID,0,VALID,94.5997,VALID,0,VALID,22.9225,VALID,82,VALID,0.888672,
2011-12-14, 01:09:04,VALID,999.27,VALID,0,VALID,94.6226,VALID,0,VALID,22.8818,VALID,95,VALID,0.683984,
2011-12-14, 01:10:04,VALID,999.239,VALID,0,VALID,94.6149,VALID,0,VALID,22.9013,VALID,95,VALID,0.463281,
2011-12-14, 01:11:04,VALID,999.226,VALID,0,VALID,94.592,VALID,0,VALID,22.9013,VALID,95,VALID,0.327734,
2011-12-14, 01:12:04,VALID,999.227,VALID,0,VALID,94.592,VALID,0,VALID,22.88,VALID,142,VALID,0.4125,
2011-12-14, 01:13:04,VALID,999.175,VALID,0,VALID,94.6073,VALID,0,VALID,22.88,VALID,207,VALID,0.690234,
2011-12-14, 01:14:04,VALID,999.18,VALID,0.5,VALID,94.5997,VALID,0,VALID,22.9403,VALID,207,VALID,0.706641,
2011-12-14, 01:15:04,VALID,999.167,VALID,0,VALID,94.5997,VALID,0,VALID,22.919,VALID,206,VALID,0.247656,
2011-12-14, 01:16:04,VALID,999.162,VALID,0,VALID,94.6073,VALID,0,VALID,22.9403,VALID,206,VALID,0.666016,
2011-12-14, 01:17:04,VALID,999.119,VALID,0,VALID,94.6149,VALID,0,VALID,22.8995,VALID,163,VALID,0.766406,
2011-12-14, 01:18:04,VALID,999.126,VALID,0,VALID,94.5691,VALID,0,VALID,22.8995,VALID,145,VALID,1.13789,
2011-12-14, 01:19:04,VALID,999.088,VALID,0,VALID,94.5997,VALID,0,VALID,22.9208,VALID,140,VALID,1.09727,
2011-12-14, 01:20:04,VALID,999.078,VALID,0,VALID,94.6073,VALID,0,VALID,22.88,VALID,140,VALID,0.953125,
2011-12-14, 01:21:04,VALID,999.09,VALID,0,VALID,94.592,VALID,0,VALID,22.88,VALID,146,VALID,1.30508,
2011-12-14, 01:22:04,VALID,999.043,VALID,0,VALID,94.6226,VALID,0,VALID,22.8818,VALID,147,VALID,1.42383,
2011-12-14, 01:23:04,VALID,999.037,VALID,0,VALID,94.6302,VALID,0,VALID,22.8215,VALID,136,VALID,1.12344,
2011-12-14, 01:24:04,VALID,999.018,VALID,0,VALID,94.6149,VALID,0,VALID,22.8623,VALID,124,VALID,1.30664,
2011-12-14, 01:25:04,VALID,998.997,VALID,0,VALID,94.6226,VALID,0,VALID,22.841,VALID,135,VALID,1.45625,
2011-12-14, 01:26:04,VALID,998.962,VALID,0.5,VALID,94.6226,VALID,0,VALID,22.8427,VALID,131,VALID,1.025,
2011-12-14, 01:27:04,VALID,998.937,VALID,0,VALID,94.6149,VALID,0,VALID,22.8232,VALID,130,VALID,1.46563,
2011-12-14, 01:28:04,VALID,998.941,VALID,0,VALID,94.6073,VALID,0,VALID,22.8427,VALID,131,VALID,1.40234,
2011-12-14, 01:29:04,VALID,998.922,VALID,0,VALID,94.6378,VALID,0,VALID,22.802,VALID,142,VALID,0.973437,
2011-12-14, 01:30:04,VALID,998.927,VALID,0,VALID,94.6226,VALID,0,VALID,22.8427,VALID,150,VALID,1.0875,
2011-12-14, 01:31:04,VALID,998.884,VALID,0,VALID,94.6226,VALID,0,VALID,22.8427,VALID,150,VALID,0.977344,
2011-12-14, 01:32:04,VALID,998.896,VALID,0,VALID,94.6302,VALID,0.104696,VALID,22.8232,VALID,150,VALID,1.0375,
2011-12-14, 01:33:04,VALID,998.844,VALID,0,VALID,94.6302,VALID,0,VALID,22.8232,VALID,156,VALID,0.623828,
2011-12-14, 01:34:04,VALID,998.819,VALID,0,VALID,94.6454,VALID,0,VALID,22.7825,VALID,156,VALID,0.837109,
2011-12-14, 01:35:04,VALID,998.802,VALID,0,VALID,94.6378,VALID,0,VALID,22.7825,VALID,156,VALID,0.605859,
2011-12-14, 01:36:04,VALID,998.783,VALID,0,VALID,94.6302,VALID,0.104696,VALID,22.763,VALID,156,VALID,0.540234,
2011-12-14, 01:37:04,VALID,998.779,VALID,0,VALID,94.6378,VALID,0,VALID,22.763,VALID,156,VALID,0.497656,
2011-12-14, 01:38:04,VALID,998.741,VALID,0,VALID,94.6531,VALID,0,VALID,22.763,VALID,156,VALID,0.751562,
2011-12-14, 01:39:04,VALID,998.735,VALID,0,VALID,94.6378,VALID,0,VALID,22.7435,VALID,145,VALID,0.742188,
2011-12-14, 01:40:04,VALID,998.731,VALID,0,VALID,94.6531,VALID,0,VALID,22.7452,VALID,136,VALID,0.506641,
2011-12-14, 01:41:04,VALID,998.736,VALID,0,VALID,94.6302,VALID,0,VALID,22.7257,VALID,128,VALID,0.604297,
2011-12-14, 01:42:04,VALID,998.729,VALID,0,VALID,94.6302,VALID,0,VALID,22.7062,VALID,128,VALID,0.619922,
2011-12-14, 01:43:04,VALID,998.716,VALID,0,VALID,94.6531,VALID,0,VALID,22.7257,VALID,130,VALID,0.759375,
2011-12-14, 01:44:04,VALID,998.729,VALID,0,VALID,94.6378,VALID,0,VALID,22.7469,VALID,130,VALID,0.777344,
2011-12-14, 01:45:04,VALID,998.766,VALID,0,VALID,94.6302,VALID,0,VALID,22.7274,VALID,130,VALID,0.700391,
2011-12-14, 01:46:04,VALID,998.751,VALID,0,VALID,94.6531,VALID,0,VALID,22.7062,VALID,130,VALID,0.496484,
2011-12-14, 01:47:04,VALID,998.753,VALID,0,VALID,94.6378,VALID,0,VALID,22.7274,VALID,130,VALID,0.448828,
2011-12-14, 01:48:04,VALID,998.765,VALID,0,VALID,94.6378,VALID,0,VALID,22.6867,VALID,130,VALID,0.413672,
2011-12-14, 01:49:04,VALID,998.745,VALID,0,VALID,94.6378,VALID,0,VALID,22.7062,VALID,130,VALID,0.361719,
2011-12-14, 01:50:04,VALID,998.747,VALID,0,VALID,94.6378,VALID,0,VALID,22.7257,VALID,130,VALID,0.124609,
2011-12-14, 01:51:04,VALID,998.778,VALID,0,VALID,94.6531,VALID,0,VALID,22.7469,VALID,130,VALID,0,
2011-12-14, 01:52:04,VALID,998.757,VALID,0,VALID,94.6454,VALID,0,VALID,22.7274,VALID,130,VALID,0.258203,
2011-12-14, 01:53:04,VALID,998.79,VALID,0,VALID,94.6302,VALID,0,VALID,22.7274,VALID,130,VALID,0,
2011-12-14, 01:54:04,VALID,998.762,VALID,0,VALID,94.6607,VALID,0,VALID,22.7274,VALID,95,VALID,0,
2011-12-14, 01:55:04,VALID,998.756,VALID,0,VALID,94.6226,VALID,0,VALID,22.685,VALID,95,VALID,0,
2011-12-14, 01:56:04,VALID,998.766,VALID,0,VALID,94.6378,VALID,0,VALID,22.6867,VALID,94,VALID,0,
2011-12-14, 01:57:04,VALID,998.755,VALID,0,VALID,94.6531,VALID,0,VALID,22.6867,VALID,94,VALID,0,
2011-12-14, 01:58:04,VALID,998.732,VALID,0,VALID,94.6531,VALID,0,VALID,22.646,VALID,94,VALID,0,
2011-12-14, 01:59:04,VALID,998.76,VALID,0,VALID,94.6531,VALID,0,VALID,22.6672,VALID,94,VALID,0,
2011-12-14, 02:00:04,VALID,998.751,VALID,0,VALID,94.6607,VALID,0,VALID,22.6867,VALID,94,VALID,0,
2011-12-14, 02:01:04,VALID,998.758,VALID,0,VALID,94.6454,VALID,0,VALID,22.685,VALID,94,VALID,0,
2011-12-14, 02:02:04,VALID,998.768,VALID,0,VALID,94.6302,VALID,0,VALID,22.7257,VALID,94,VALID,0,
2011-12-14, 02:03:04,VALID,998.77,VALID,0,VALID,94.6378,VALID,0,VALID,22.7045,VALID,94,VALID,0,
2011-12-14, 02:04:04,VALID,998.775,VALID,0,VALID,94.6226,VALID,0,VALID,22.724,VALID,94,VALID,0,
2011-12-14, 02:05:04,VALID,998.813,VALID,0,VALID,94.6302,VALID,0.104696,VALID,22.7452,VALID,94,VALID,0,
2011-12-14, 02:06:04,VALID,998.808,VALID,0,VALID,94.6149,VALID,0,VALID,22.7647,VALID,94,VALID,0,
2011-12-14, 02:07:04,VALID,998.839,VALID,0,VALID,94.5997,VALID,0,VALID,22.7842,VALID,94,VALID,0,
2011-12-14, 02:08:04,VALID,998.826,VALID,0,VALID,94.6149,VALID,0,VALID,22.8037,VALID,94,VALID,0,
2011-12-14, 02:09:04,VALID,998.808,VALID,0,VALID,94.6073,VALID,0,VALID,22.802,VALID,67,VALID,0.926172,
2011-12-14, 02:10:04,VALID,998.846,VALID,0,VALID,94.6073,VALID,0,VALID,22.8232,VALID,63,VALID,0.810938,
2011-12-14, 02:11:04,VALID,998.806,VALID,0,VALID,94.5844,VALID,0,VALID,22.8623,VALID,48,VALID,0.990625,
2011-12-14, 02:12:04,VALID,998.82,VALID,0,VALID,94.5844,VALID,0,VALID,22.9013,VALID,44,VALID,0.954297,
2011-12-14, 02:13:04,VALID,998.828,VALID,0,VALID,94.5462,VALID,0,VALID,22.9225,VALID,44,VALID,0.616016,
2011-12-14, 02:14:04,VALID,998.779,VALID,0,VALID,94.592,VALID,0,VALID,22.9403,VALID,44,VALID,0.761328,
2011-12-14, 02:15:04,VALID,998.796,VALID,0,VALID,94.5615,VALID,0,VALID,22.9403,VALID,34,VALID,0.501172,
2011-12-14, 02:16:04,VALID,998.747,VALID,0,VALID,94.5844,VALID,0,VALID,22.9598,VALID,34,VALID,0.363281,
2011-12-14, 02:17:04,VALID,998.727,VALID,0,VALID,94.5691,VALID,0,VALID,22.9793,VALID,34,VALID,0.0738281,
2011-12-14, 02:18:04,VALID,998.712,VALID,0,VALID,94.5615,VALID,0,VALID,22.9793,VALID,34,VALID,0,
2011-12-14, 02:19:04,VALID,998.727,VALID,0,VALID,94.5691,VALID,0,VALID,22.9793,VALID,34,VALID,0.466406,
2011-12-14, 02:20:04,VALID,998.685,VALID,0,VALID,94.5691,VALID,0,VALID,22.9793,VALID,34,VALID,0.436719,
2011-12-14, 02:21:04,VALID,998.677,VALID,0,VALID,94.5615,VALID,0,VALID,22.9988,VALID,34,VALID,0.446484,
2011-12-14, 02:22:04,VALID,998.665,VALID,0,VALID,94.5768,VALID,0,VALID,22.9793,VALID,34,VALID,0.535156,
2011-12-14, 02:23:04,VALID,998.639,VALID,0,VALID,94.5768,VALID,0,VALID,22.9793,VALID,34,VALID,0.608203,
2011-12-14, 02:24:04,VALID,998.684,VALID,0,VALID,94.5615,VALID,0,VALID,23.0201,VALID,37,VALID,0.576953,
2011-12-14, 02:25:04,VALID,998.678,VALID,0,VALID,94.5615,VALID,0,VALID,22.9971,VALID,37,VALID,0.584375,
2011-12-14, 02:26:04,VALID,998.71,VALID,0,VALID,94.5615,VALID,0,VALID,22.9971,VALID,37,VALID,0.689062,
2011-12-14, 02:27:04,VALID,998.725,VALID,0,VALID,94.5768,VALID,0,VALID,23.0166,VALID,37,VALID,0.815625,
2011-12-14, 02:28:04,VALID,998.752,VALID,0,VALID,94.5539,VALID,0,VALID,23.0183,VALID,37,VALID,1.05586,
2011-12-14, 02:29:04,VALID,998.742,VALID,0,VALID,94.5539,VALID,0,VALID,23.0378,VALID,37,VALID,0.673437,
2011-12-14, 02:30:04,VALID,998.742,VALID,0,VALID,94.5462,VALID,0,VALID,23.0361,VALID,37,VALID,0.606641,
2011-12-14, 02:31:04,VALID,998.731,VALID,0,VALID,94.5462,VALID,0,VALID,23.0166,VALID,50,VALID,0.717969,
2011-12-14, 02:32:04,VALID,998.734,VALID,0,VALID,94.5462,VALID,0,VALID,22.9971,VALID,54,VALID,0.342578,
2011-12-14, 02:33:04,VALID,998.745,VALID,0,VALID,94.5768,VALID,0,VALID,23.0166,VALID,54,VALID,0.0253906,
2011-12-14, 02:34:04,VALID,998.767,VALID,0,VALID,94.5539,VALID,0,VALID,23.0166,VALID,54,VALID,0.549219,
2011-12-14, 02:35:04,VALID,998.732,VALID,0,VALID,94.5462,VALID,0,VALID,23.0166,VALID,54,VALID,0.658594,
2011-12-14, 02:36:04,VALID,998.708,VALID,0,VALID,94.5691,VALID,0,VALID,23.0166,VALID,54,VALID,0.673437,
2011-12-14, 02:37:04,VALID,998.692,VALID,0,VALID,94.5615,VALID,0,VALID,23.0573,VALID,54,VALID,0.786328,
2011-12-14, 02:38:04,VALID,998.662,VALID,0,VALID,94.5691,VALID,0.104696,VALID,23.0556,VALID,54,VALID,0.472266,
2011-12-14, 02:39:04,VALID,998.661,VALID,0,VALID,94.5691,VALID,0,VALID,23.0769,VALID,49,VALID,0.647656,
2011-12-14, 02:40:04,VALID,998.655,VALID,0,VALID,94.5462,VALID,0,VALID,23.0556,VALID,49,VALID,0.535547,
2011-12-14, 02:41:04,VALID,998.654,VALID,0,VALID,94.5462,VALID,0,VALID,23.0769,VALID,49,VALID,0.535937,
2011-12-14, 02:42:04,VALID,998.658,VALID,0,VALID,94.5462,VALID,0,VALID,23.0556,VALID,49,VALID,0.428906,
2011-12-14, 02:43:04,VALID,998.659,VALID,0,VALID,94.5386,VALID,0.104696,VALID,23.0556,VALID,49,VALID,0.564844,
2011-12-14, 02:44:04,VALID,998.665,VALID,0.5,VALID,94.5462,VALID,0,VALID,23.0769,VALID,49,VALID,0.791406,
2011-12-14, 02:45:04,VALID,998.722,VALID,0,VALID,94.5539,VALID,0,VALID,23.0751,VALID,48,VALID,1.14688,
2011-12-14, 02:46:04,VALID,998.725,VALID,0.5,VALID,94.5462,VALID,0,VALID,23.0751,VALID,12,VALID,1.43438,
2011-12-14, 02:47:04,VALID,998.752,VALID,0,VALID,94.5539,VALID,0,VALID,23.0751,VALID,10,VALID,1.69297,
2011-12-14, 02:48:04,VALID,998.733,VALID,0.5,VALID,94.5539,VALID,0,VALID,23.0769,VALID,339,VALID,1.43555,
2011-12-14, 02:49:04,VALID,998.763,VALID,0,VALID,94.5768,VALID,0,VALID,23.0769,VALID,341,VALID,0.496875,
2011-12-14, 02:50:04,VALID,998.781,VALID,0,VALID,94.5462,VALID,0,VALID,23.0556,VALID,312,VALID,0.741406,
2011-12-14, 02:51:04,VALID,998.772,VALID,0,VALID,94.5615,VALID,0,VALID,23.0573,VALID,308,VALID,0.720312,
2011-12-14, 02:52:04,VALID,998.761,VALID,0,VALID,94.5844,VALID,0,VALID,23.0361,VALID,311,VALID,0.860937,
2011-12-14, 02:53:04,VALID,998.711,VALID,0.5,VALID,94.5539,VALID,0,VALID,23.0166,VALID,312,VALID,0.348047,
2011-12-14, 02:54:04,VALID,998.723,VALID,0,VALID,94.5615,VALID,0,VALID,23.0378,VALID,312,VALID,0,
2011-12-14, 02:55:04,VALID,998.707,VALID,0,VALID,94.5691,VALID,0,VALID,23.0183,VALID,65,VALID,0.714844,
2011-12-14, 02:56:04,VALID,998.669,VALID,0,VALID,94.5615,VALID,0,VALID,22.9988,VALID,65,VALID,0.151562,
2011-12-14, 02:57:04,VALID,998.674,VALID,0,VALID,94.5768,VALID,0,VALID,22.9988,VALID,65,VALID,0,
2011-12-14, 02:58:04,VALID,998.642,VALID,0,VALID,94.5844,VALID,0,VALID,22.9988,VALID,65,VALID,0.00195313,
2011-12-14, 02:59:04,VALID,998.667,VALID,0,VALID,94.6073,VALID,0,VALID,22.9988,VALID,65,VALID,0,
2011-12-14, 03:00:04,VALID,998.651,VALID,0,VALID,94.5691,VALID,0,VALID,23.0183,VALID,91,VALID,0.734375,
2011-12-14, 03:01:04,VALID,998.663,VALID,0,VALID,94.5768,VALID,0,VALID,23.0378,VALID,95,VALID,0.727734,
2011-12-14, 03:02:04,VALID,998.677,VALID,0,VALID,94.5615,VALID,0,VALID,23.0378,VALID,99,VALID,0.420703,
2011-12-14, 03:03:04,VALID,998.679,VALID,0,VALID,94.5691,VALID,0,VALID,23.0573,VALID,99,VALID,0.289063,
2011-12-14, 03:04:04,VALID,998.711,VALID,0,VALID,94.5615,VALID,0,VALID,23.0361,VALID,99,VALID,0.0960938,
2011-12-14, 03:05:04,VALID,998.709,VALID,0,VALID,94.5462,VALID,0,VALID,23.0166,VALID,323,VALID,0.735937,
2011-12-14, 03:06:04,VALID,998.728,VALID,0,VALID,94.5615,VALID,0,VALID,23.0378,VALID,308,VALID,0,
2011-12-14, 03:07:04,VALID,998.739,VALID,0,VALID,94.5691,VALID,0,VALID,23.0361,VALID,305,VALID,0.347656,
2011-12-14, 03:08:04,VALID,998.74,VALID,0,VALID,94.5615,VALID,0,VALID,23.0361,VALID,305,VALID,0.0773437,
2011-12-14, 03:09:04,VALID,998.722,VALID,0,VALID,94.5539,VALID,0,VALID,23.0378,VALID,305,VALID,0,
2011-12-14, 03:10:04,VALID,998.741,VALID,0,VALID,94.5539,VALID,0,VALID,23.0396,VALID,305,VALID,0.0847656,
2011-12-14, 03:11:04,VALID,998.711,VALID,0,VALID,94.5691,VALID,0,VALID,23.0183,VALID,305,VALID,0,
2011-12-14, 03:12:04,VALID,998.685,VALID,0,VALID,94.5691,VALID,0,VALID,23.0396,VALID,305,VALID,0,
2011-12-14, 03:13:04,VALID,998.684,VALID,0,VALID,94.5691,VALID,0,VALID,22.9988,VALID,305,VALID,0,
2011-12-14, 03:14:04,VALID,998.648,VALID,0,VALID,94.5844,VALID,0,VALID,23.0396,VALID,305,VALID,0,
2011-12-14, 03:15:04,VALID,998.657,VALID,0,VALID,94.5691,VALID,0,VALID,23.0183,VALID,305,VALID,0,
2011-12-14, 03:16:04,VALID,998.584,VALID,0,VALID,94.5691,VALID,0,VALID,23.0183,VALID,305,VALID,0,
2011-12-14, 03:17:04,VALID,998.589,VALID,0,VALID,94.5768,VALID,0,VALID,22.9988,VALID,305,VALID,0,
2011-12-14, 03:18:04,VALID,998.574,VALID,0,VALID,94.5539,VALID,0,VALID,23.0183,VALID,305,VALID,0,
2011-12-14, 03:19:04,VALID,998.574,VALID,0,VALID,94.5691,VALID,0,VALID,23.0396,VALID,305,VALID,0,
2011-12-14, 03:20:04,VALID,998.586,VALID,0.5,VALID,94.5691,VALID,0,VALID,23.0396,VALID,305,VALID,0,
2011-12-14, 03:21:04,VALID,998.554,VALID,0,VALID,94.5844,VALID,0,VALID,23.0201,VALID,305,VALID,0,
2011-12-14, 03:22:04,VALID,998.534,VALID,0,VALID,94.5615,VALID,0,VALID,23.0201,VALID,305,VALID,0,
2011-12-14, 03:23:04,VALID,998.553,VALID,0,VALID,94.5691,VALID,0,VALID,23.0396,VALID,305,VALID,0,
2011-12-14, 03:24:04,VALID,998.545,VALID,0,VALID,94.5615,VALID,0,VALID,23.0201,VALID,305,VALID,0,
2011-12-14, 03:25:04,VALID,998.524,VALID,0,VALID,94.5539,VALID,0,VALID,23.0166,VALID,305,VALID,0,
2011-12-14, 03:26:04,VALID,998.549,VALID,0,VALID,94.5615,VALID,0,VALID,23.0378,VALID,305,VALID,0,
2011-12-14, 03:27:04,VALID,998.521,VALID,0,VALID,94.5539,VALID,0,VALID,23.0378,VALID,305,VALID,0,
2011-12-14, 03:28:04,VALID,998.545,VALID,0,VALID,94.5691,VALID,0,VALID,23.0573,VALID,305,VALID,0,
2011-12-14, 03:29:04,VALID,998.544,VALID,0,VALID,94.5691,VALID,0,VALID,23.0361,VALID,187,VALID,0.0238281,
2011-12-14, 03:30:04,VALID,998.528,VALID,0,VALID,94.5539,VALID,0,VALID,23.0964,VALID,184,VALID,0.770312,
2011-12-14, 03:31:04,VALID,998.533,VALID,0,VALID,94.531,VALID,0,VALID,23.1159,VALID,169,VALID,1.03008,
2011-12-14, 03:32:04,VALID,998.533,VALID,0,VALID,94.5539,VALID,0,VALID,23.1354,VALID,167,VALID,1.14023,
2011-12-14, 03:33:04,VALID,998.48,VALID,0,VALID,94.5386,VALID,0,VALID,23.1159,VALID,164,VALID,1.08281,
2011-12-14, 03:34:04,VALID,998.483,VALID,0,VALID,94.5234,VALID,0,VALID,23.1354,VALID,164,VALID,1.01602,
2011-12-14, 03:35:04,VALID,998.465,VALID,0,VALID,94.5386,VALID,0,VALID,23.1354,VALID,164,VALID,0.979297,
2011-12-14, 03:36:04,VALID,998.437,VALID,0,VALID,94.5462,VALID,0.104696,VALID,23.1336,VALID,158,VALID,1.05117,
2011-12-14, 03:37:04,VALID,998.434,VALID,0,VALID,94.5234,VALID,0,VALID,23.1549,VALID,158,VALID,0.906641,
2011-12-14, 03:38:04,VALID,998.436,VALID,0,VALID,94.5081,VALID,0,VALID,23.1531,VALID,158,VALID,0.816797,
2011-12-14, 03:39:04,VALID,998.426,VALID,0,VALID,94.5234,VALID,0,VALID,23.1744,VALID,158,VALID,0.772266,
2011-12-14, 03:40:04,VALID,998.461,VALID,0,VALID,94.531,VALID,0,VALID,23.1939,VALID,158,VALID,0.556641,
2011-12-14, 03:41:04,VALID,998.446,VALID,0,VALID,94.5081,VALID,0,VALID,23.1744,VALID,158,VALID,0.244141,
2011-12-14, 03:42:04,VALID,998.433,VALID,0,VALID,94.5081,VALID,0,VALID,23.1531,VALID,158,VALID,0,
2011-12-14, 03:43:04,VALID,998.426,VALID,0,VALID,94.5157,VALID,0,VALID,23.1531,VALID,158,VALID,0,
2011-12-14, 03:44:04,VALID,998.415,VALID,0,VALID,94.531,VALID,0,VALID,23.1744,VALID,158,VALID,0.0648438,
2011-12-14, 03:45:04,VALID,998.399,VALID,0,VALID,94.5386,VALID,0,VALID,23.1549,VALID,158,VALID,0.294531,
2011-12-14, 03:46:04,VALID,998.405,VALID,0,VALID,94.5234,VALID,0,VALID,23.1549,VALID,158,VALID,0.283594,
2011-12-14, 03:47:04,VALID,998.42,VALID,0,VALID,94.5386,VALID,0,VALID,23.1549,VALID,158,VALID,0.303516,